Location: ???????
(55.3754°N, 39.3545°E)
Time: 08:56:02
(UTC+00:00)

Cosmos 1697 Rocket - Pass Details

Date: 14 April 2026
Orbit: 832 x 842 km, 71.0° (Epoch: 14 May)

Event Time Altitude Azimuth Distance (km) Brightness Sun altitude
Rises 20:41:49 0° 324° (NW) 3,408 6.9 -24.4°
Reaches altitude 10° 20:44:29 10° 332° (NNW) 2,469 6.1 -24.5°
Maximum altitude 20:49:43 37° 40° (NE) 1,289 3.9 -24.6°
Enters shadow 20:53:16 19° 97° (E) 1,925 4.4 -24.7°
